CST,Max TemperatureF,Mean TemperatureF,Min TemperatureF,Max Dew PointF,MeanDew PointF,Min DewpointF,Max Humidity, Mean Humidity, Min Humidity, Max Sea Level PressureIn, Mean Sea Level PressureIn, Min Sea Level PressureIn, Max VisibilityMiles, Mean VisibilityMiles, Min VisibilityMiles, Max Wind SpeedMPH, Mean Wind SpeedMPH, Max Gust SpeedMPH,PrecipitationIn, CloudCover, Events, WindDirDegrees
2011-1-1,59,49,38,50,35,22,83,55,26,30.26,30.07,29.87,10,10,10,20,8,26,0.01,5,Rain-Thunderstorm,349
2011-1-2,50,40,29,30,22,15,85,55,24,30.44,30.35,30.26,10,10,10,12,6,15,0.00,0,,8
2011-1-3,55,41,26,33,24,16,85,53,20,30.35,30.26,30.16,10,10,10,10,3,14,0.00,1,,120
2011-1-4,69,58,46,53,43,32,86,66,45,30.19,30.11,30.01,10,10,10,7,2,9,0.03,5,Rain,144
2011-1-5,70,58,45,59,53,38,100,74,48,29.99,29.93,29.87,10,6,1,22,6,25,0.08,6,Rain,310
2011-1-6,61,49,36,38,33,29,92,61,29,30.07,29.99,29.94,10,10,10,22,5,29,0.00,0,,302
2011-1-7,71,55,38,36,32,28,85,54,22,29.94,29.82,29.72,10,10,10,15,6,21,0.00,0,,272
2011-1-8,56,46,35,33,27,22,76,51,26,29.98,29.93,29.84,10,9,3,15,6,17,0.00,0,,356
2011-1-9,43,39,34,32,30,26,96,73,49,30.06,29.95,29.78,10,10,5,28,9,37,0.12,6,Rain,53
2011-1-10,37,35,33,33,32,30,96,89,82,30.29,30.13,30.00,10,9,5,14,6,17,0.00,8,,4
2011-1-11,47,37,27,31,25,18,89,61,33,30.62,30.47,30.28,10,10,10,8,12,12,0.00,4,,325
2011-1-12,41,32,22,20,12,6,75,50,25,30.74,30.66,30.62,10,10,10,17,9,24,0.00,0,,341
2011-1-13,42,31,19,22,16,12,77,54,30,30.71,30.61,30.50,10,10,10,9,2,13,0.00,1,,51
2011-1-14,45,39,33,29,22,19,64,51,37,30.48,30.42,30.36,10,10,10,10,4,14,0.00,8,,131
2011-1-15,57,49,41,36,29,24,67,50,32,30.35,30.27,30.17,10,10,10,8,3,12,T,8,,124
2011-1-16,53,51,48,51,47,36,100,81,61,30.16,30.08,30.00,10,7,4,15,7,18,1.00,8,Rain,125
2011-1-17,60,54,48,54,50,46,100,86,72,29.98,29.82,29.74,10,8,5,14,7,17,0.09,7,Rain,152
2011-1-18,56,51,46,52,49,44,93,85,77,30.03,29.85,29.76,10,8,2,13,5,17,0.20,8,Rain-Thunderstorm,331
2011-1-19,58,50,41,46,42,16,100,69,37,30.13,30.06,29.90,10,9,6,13,5,16,0.00,4,,65
2011-1-20,56,47,37,50,42,31,92,85,77,30.17,30.02,29.93,10,9,4,21,10,29,0.05,8,Rain,20
2011-1-21,47,37,27,32,25,16,89,60,31,30.17,30.12,30.03,10,10,7,14,7,20,0.01,4,Rain-Snow,13
2011-1-22,54,40,25,29,26,23,92,62,32,30.16,30.07,30.00,10,10,10,8,3,12,0.00,1,,156
2011-1-23,61,44,26,43,34,25,100,71,42,30.15,30.09,30.05,10,10,10,16,5,20,0.00,2,,149
2011-1-24,52,50,47,50,47,41,96,84,71,30.11,30.02,29.93,10,8,4,13,4,17,0.91,8,Rain,38
2011-1-25,54,47,39,49,44,36,93,81,68,30.10,29.96,29.88,10,9,5,21,10,28,0.46,7,Rain,352
2011-1-26,56,43,30,36,33,29,96,67,38,30.26,30.19,30.11,10,9,3,12,2,17,0.00,0,,321
2011-1-27,63,48,32,36,32,30,96,63,30,30.22,30.15,30.09,10,10,10,18,3,22,0.00,0,,278
2011-1-28,72,53,33,42,35,30,89,57,24,30.12,30.07,30.02,10,10,10,10,1,13,0.00,0,,249
2011-1-29,70,54,37,54,46,34,92,73,53,30.14,30.07,30.03,10,10,10,14,5,16,T,0,,186
2011-1-30,63,58,53,61,57,52,100,92,84,30.10,30.04,29.99,10,8,0,13,5,18,0.32,7,Fog-Rain,154
2011-1-31,71,63,54,58,56,54,100,83,66,30.08,30.01,29.90,10,6,0,10,4,13,0.00,7,Fog,137